sat.trackr.live / text

‹ back to catalog

STARLINK-2194

NORAD 47771 · 2021-017BB

PAYLOAD ACTIVE UNKNOWN

§ Identity

Operator
Country
US
Launch date
2021-03-04
Launch site
AFETR
Launch vehicle
Mass (kg)
RCS (m²)

Purposes: comms

External: N2YO · Heavens-Above · Gunter

§ Orbital elements

Epoch: 2026-09-20T01:00:49.885056Z

Period
93.76 min
Inclination
53.1600°
Eccentricity
0.0001876
Mean motion
15.35878540 rev/d
Perigee alt
457.0 km
Apogee alt
459.6 km
Semi-major
6,836.4 km
B*
9.6710e-4
RAAN
18.7798°
Arg perigee
7.0596°
Mean anomaly
353.0434°
Rev number
30,766

§ Raw data

STARLINK-21941 47771U 21017BB  26263.04224404  .00034028  00000+0  96710-3 0  99982 47771  53.1600  18.7798 0001876   7.0596 353.0434 15.35878540307662

JSON: /api/v1/satellites/47771 · /tle

For live sub-satellite position, see the globe view (requires WebGL).

§ Visibility from observer

Set your observer location to see the next 7 days of passes ≥ 10°. The values pass through the URL so the page stays shareable.

No JS? Fill the form by hand. The geolocation button needs JavaScript.